Location: Newark
(35.5261°N, 36.5886°E)
Time: 01:59:33
(UTC+00:00)

Hubble Space Telescope - Visible Passes

Search period start: 19 November 2019 00:00
Search period end: 29 November 2019 00:00
Orbit: 536 x 540 km, 28.5° (Epoch: 17 November)

Date Brightness Start Highest point End Pass type
(mag) Time Alt. Az. Time Alt. Az. Time Alt. Az.
19 Nov 3.2 14:52:17 10° S 14:53:46 12° SSE 14:55:15 10° SE visible
19 Nov 2.6 16:30:57 10° SW 16:33:21 23° SSW 16:33:21 23° SSW visible
20 Nov 2.3 16:20:10 10° SW 16:23:22 27° S 16:23:22 27° S visible
21 Nov 2.0 16:09:27 10° SW 16:13:03 29° S 16:13:24 28° SSE visible
22 Nov 2.1 15:58:45 10° WSW 16:02:23 30° S 16:03:25 26° SSE visible
23 Nov 2.1 15:48:05 10° WSW 15:51:44 30° S 15:53:28 22° SE visible
24 Nov 2.2 15:37:27 10° WSW 15:41:05 30° S 15:43:34 17° SE visible
24 Nov 4.0 17:18:45 10° WSW 17:18:54 11° WSW 17:18:54 11° WSW visible
25 Nov 2.3 15:26:50 10° WSW 15:30:25 29° S 15:33:43 12° SE visible
25 Nov 3.7 17:08:21 10° WSW 17:09:04 13° SW 17:09:04 13° SW visible
26 Nov 2.5 15:16:14 10° WSW 15:19:46 28° S 15:23:18 10° SE visible
26 Nov 3.5 16:58:05 10° SW 16:59:18 13° SW 16:59:18 13° SW visible
27 Nov 2.7 15:05:40 10° WSW 15:09:06 25° S 15:12:33 10° SE visible
27 Nov 3.5 16:48:03 10° SW 16:49:38 12° SSW 16:49:38 12° SSW visible
28 Nov 2.9 14:55:08 10° WSW 14:58:26 23° SSW 15:01:44 10° SE visible
